Weather History for Denali Park, AK

Change the Weather History Date:

Monday, May 20, 2013

  Actual Average Record
Temperature  
Mean Temperature 28 °F -  
Max Temperature 42 °F 55 °F 75 °F (2002)
Min Temperature 15 °F 30 °F 15 °F (2013)
Degree Days  
Heating Degree Days 36    
Moisture  
Dew Point 12 °F    
Average Humidity 46    
Maximum Humidity 79    
Minimum Humidity 26    
Precipitation  
Precipitation 0.00 in - - ()
Sea Level Pressure  
Sea Level Pressure 30.53 in    
Wind  
Wind Speed 3 mph (SSE)    
Max Wind Speed 12 mph    
Max Gust Speed 18 mph    
Visibility 10 miles    
Events      
Averages and records for this station are not official NWS values.
T = Trace of Precipitation, MM = Missing Value Source: NWS Daily Summary

Daily Weather History Graph

Daily Weather History Graph

Search for Another Location

Airport:

Trip Planner

Search our weather history database for the weather conditions in past years. The results will help you decide how hot, cold, wet, or windy it might be!

Date:

Astronomy

May. 20, 2013 Rise Set
Actual Time 4:28 AM AKDT 11:17 PM AKDT
Civil Twilight 2:22 AM AKDT 1:44 AM AKDT
Nautical Twilight Sun does not rise Sun does not rise
Astronomical Twilight Sun does not rise Sun does not rise
Moon 4:53 PM AKDT (5/20) 3:23 AM AKDT (5/20)
Length of Visible Light 23h 22m
Length of Day
18h 49m
Waxing Gibbous, 76% of the Moon is Illuminated
May 20
Waxing Gibbous
May 24
Full
May 31
Last Quarter
Jun 8
New
Jun 16
First Quarter

Hourly Weather History & Observations

Time (AKDT) Temp. Windchill Dew Point Humidity Pressure Visibility Wind Dir Wind Speed Gust Speed Precip Events Conditions
12:16 AM 26.6 °F - 10.4 °F 51% 30.56 in 10.0 mi Calm Calm - N/A   Clear
12:36 AM 24.8 °F - 12.2 °F 59% 30.56 in 10.0 mi Calm Calm - N/A   Clear
12:56 AM 24.8 °F 20.5 °F 10.4 °F 54% 30.57 in 10.0 mi SW 3.5 mph - N/A   Clear
1:16 AM 24.8 °F 20.5 °F 10.4 °F 54% 30.57 in 10.0 mi SW 3.5 mph - N/A   Clear
1:36 AM 21.2 °F 14.9 °F 12.2 °F 68% 30.58 in 10.0 mi SW 4.6 mph - N/A   Clear
1:56 AM 21.2 °F 16.4 °F 10.4 °F 63% 30.58 in 10.0 mi SW 3.5 mph - N/A   Clear
2:16 AM 21.2 °F - 10.4 °F 63% 30.59 in 10.0 mi Calm Calm - N/A   Clear
2:36 AM 21.2 °F - 10.4 °F 63% 30.60 in 10.0 mi Calm Calm - N/A   Clear
2:56 AM 19.4 °F - 10.4 °F 68% 30.60 in 10.0 mi Calm Calm - N/A   Clear
3:16 AM 17.6 °F - 10.4 °F 73% 30.60 in 10.0 mi Calm Calm - N/A   Clear
3:36 AM 17.6 °F - 10.4 °F 73% 30.61 in 10.0 mi Calm Calm - N/A   Clear
4:16 AM 17.6 °F - 10.4 °F 73% 30.61 in 10.0 mi Calm Calm - N/A   Clear
4:36 AM 15.8 °F - 10.4 °F 79% 30.61 in 10.0 mi Calm Calm - N/A   Clear
4:56 AM 15.8 °F - 10.4 °F 79% 30.61 in 10.0 mi Calm Calm - N/A   Clear
5:16 AM 15.8 °F - 8.6 °F 73% 30.62 in 10.0 mi Calm Calm - N/A   Clear
5:36 AM 15.8 °F - 8.6 °F 73% 30.61 in 10.0 mi Calm Calm - N/A   Clear
5:56 AM 15.8 °F - 8.6 °F 73% 30.61 in 10.0 mi Calm Calm - N/A   Clear
6:16 AM 15.8 °F - 8.6 °F 73% 30.61 in 10.0 mi Calm Calm - N/A   Clear
6:36 AM 15.8 °F - 8.6 °F 73% 30.61 in 10.0 mi Calm Calm - N/A   Clear
6:56 AM 17.6 °F - 10.4 °F 73% 30.61 in 10.0 mi Calm Calm - N/A   Clear
7:16 AM 19.4 °F - 10.4 °F 68% 30.60 in 10.0 mi Calm Calm - N/A   Clear
7:36 AM 21.2 °F - 12.2 °F 68% 30.60 in 10.0 mi Calm Calm - N/A   Clear
7:56 AM 24.8 °F - 12.2 °F 59% 30.60 in 10.0 mi Calm Calm - N/A   Clear
8:16 AM 24.8 °F - 10.4 °F 54% 30.60 in 10.0 mi Calm Calm - N/A   Clear
8:36 AM 26.6 °F - 12.2 °F 55% 30.59 in 10.0 mi Calm Calm - N/A   Clear
8:56 AM 28.4 °F - 12.2 °F 51% 30.59 in 10.0 mi Calm Calm - N/A   Clear
9:16 AM 28.4 °F - 12.2 °F 51% 30.58 in 10.0 mi Calm Calm - N/A   Clear
9:36 AM 30.2 °F - 12.2 °F 47% 30.58 in 10.0 mi Calm Calm - N/A   Clear
9:56 AM 32.0 °F 26.4 °F 8.6 °F 38% 30.57 in 10.0 mi SW 5.8 mph - N/A   Clear
10:16 AM 33.8 °F - 8.6 °F 35% 30.56 in 10.0 mi Calm Calm - N/A   Clear
10:56 AM 37.4 °F 33.8 °F 8.6 °F 30% 30.55 in 10.0 mi South 4.6 mph - N/A   Clear
11:16 AM 37.4 °F 33.8 °F 8.6 °F 30% 30.54 in 10.0 mi ESE 4.6 mph - N/A   Clear
11:36 AM 37.4 °F 30.8 °F 8.6 °F 30% 30.54 in 10.0 mi ESE 9.2 mph - N/A   Clear
11:56 AM 39.2 °F 33.6 °F 8.6 °F 28% 30.53 in 10.0 mi SSE 8.1 mph - N/A   Clear
12:16 PM 39.2 °F 33.6 °F 8.6 °F 28% 30.53 in 10.0 mi South 8.1 mph - N/A   Clear
12:36 PM 39.2 °F 35.0 °F 8.6 °F 28% 30.53 in 10.0 mi SE 5.8 mph - N/A   Clear
12:56 PM 41.0 °F 36.4 °F 8.6 °F 26% 30.53 in 10.0 mi South 6.9 mph - N/A   Clear
1:16 PM 41.0 °F 36.4 °F 10.4 °F 29% 30.52 in 10.0 mi South 6.9 mph 16.1 mph N/A   Clear
1:36 PM 41.0 °F 36.4 °F 10.4 °F 29% 30.52 in 10.0 mi South 6.9 mph - N/A   Clear
1:56 PM 41.0 °F 37.1 °F 12.2 °F 31% 30.52 in 10.0 mi SSE 5.8 mph 16.1 mph N/A   Clear
2:16 PM 41.0 °F 35.2 °F 10.4 °F 29% 30.52 in 10.0 mi SSE 9.2 mph 18.4 mph N/A   Clear
2:36 PM 41.0 °F 34.7 °F 12.2 °F 31% 30.51 in 10.0 mi SE 10.4 mph 18.4 mph N/A   Clear
2:56 PM 41.0 °F 35.2 °F 12.2 °F 31% 30.51 in 10.0 mi ESE 9.2 mph - N/A   Clear
3:16 PM 41.0 °F 34.7 °F 12.2 °F 31% 30.51 in 10.0 mi SE 10.4 mph - N/A   Clear
3:36 PM 41.0 °F 34.7 °F 12.2 °F 31% 30.51 in 10.0 mi SE 10.4 mph 17.3 mph N/A   Clear
3:56 PM 41.0 °F 34.7 °F 12.2 °F 31% 30.51 in 10.0 mi SE 10.4 mph 16.1 mph N/A   Clear
4:16 PM 42.8 °F 38.6 °F 14.0 °F 31% 30.50 in 10.0 mi SE 6.9 mph - N/A   Clear
4:36 PM 41.0 °F 34.3 °F 12.2 °F 31% 30.50 in 10.0 mi ESE 11.5 mph 17.3 mph N/A   Clear
4:56 PM 42.8 °F 38.0 °F 14.0 °F 31% 30.49 in 10.0 mi South 8.1 mph 16.1 mph N/A   Clear
5:16 PM 42.8 °F 38.0 °F 14.0 °F 31% 30.49 in 10.0 mi SE 8.1 mph - N/A   Clear
5:36 PM 42.8 °F 36.6 °F 14.0 °F 31% 30.49 in 10.0 mi ESE 11.5 mph 17.3 mph N/A   Clear
5:56 PM 42.8 °F 37.5 °F 14.0 °F 31% 30.48 in 10.0 mi SE 9.2 mph - N/A   Clear
6:16 PM 42.8 °F 37.5 °F 12.2 °F 29% 30.48 in 10.0 mi SSE 9.2 mph 16.1 mph N/A   Clear
6:36 PM 42.8 °F 38.0 °F 12.2 °F 29% 30.47 in 10.0 mi South 8.1 mph - N/A   Clear
6:56 PM 42.8 °F 38.6 °F 12.2 °F 29% 30.47 in 10.0 mi SSE 6.9 mph - N/A   Clear
7:16 PM 42.8 °F 39.3 °F 14.0 °F 31% 30.47 in 10.0 mi SE 5.8 mph - N/A   Clear
7:36 PM 41.0 °F 35.8 °F 12.2 °F 31% 30.46 in 10.0 mi SSE 8.1 mph - N/A   Clear
7:56 PM 41.0 °F 36.4 °F 14.0 °F 33% 30.46 in 10.0 mi SSE 6.9 mph 17.3 mph N/A   Clear
8:16 PM 41.0 °F 35.2 °F 14.0 °F 33% 30.46 in 10.0 mi SSE 9.2 mph - N/A   Clear
8:36 PM 39.2 °F 33.6 °F 14.0 °F 36% 30.46 in 10.0 mi SSE 8.1 mph - N/A   Clear
8:56 PM 39.2 °F 33.6 °F 15.8 °F 39% 30.46 in 10.0 mi SSE 8.1 mph - N/A   Clear
9:16 PM 39.2 °F 33.6 °F 15.8 °F 39% 30.46 in 10.0 mi South 8.1 mph - N/A   Clear
9:36 PM 39.2 °F 34.2 °F 14.0 °F 36% 30.46 in 10.0 mi SE 6.9 mph - N/A   Clear
9:56 PM 37.4 °F 33.8 °F 14.0 °F 38% 30.46 in 10.0 mi SSE 4.6 mph - N/A   Clear
10:16 PM 37.4 °F 34.9 °F 15.8 °F 41% 30.46 in 10.0 mi South 3.5 mph - N/A   Clear
10:36 PM 37.4 °F - 14.0 °F 38% 30.46 in 10.0 mi Calm Calm - N/A   Clear
10:56 PM 37.4 °F 34.9 °F 14.0 °F 38% 30.46 in 10.0 mi SSE 3.5 mph - N/A   Clear
11:16 PM 35.6 °F - 14.0 °F 41% 30.46 in 10.0 mi Calm Calm - N/A   Clear
11:36 PM 35.6 °F - 14.0 °F 41% 30.45 in 10.0 mi Calm Calm - N/A   Clear
11:56 PM 35.6 °F 32.8 °F 14.0 °F 41% 30.45 in 10.0 mi SW 3.5 mph - N/A   Clear